JF7ELG-13 Weather Reports


time (UTC)temp
F
wind
direction
speed
knots
gust
knots
rain 1hr
in
rain 24hr
in
rain mn
in
humidity
%
barometer
mb
20260504224836 60 131 0.0 1.7 0.00 0.00 0.00 53 1014.5
20260504223328 59 110 0.0 1.7 0.00 0.00 0.00 57 1014.3
20260504221831 58 94 0.0 1.7 0.00 0.00 0.00 58 1013.9
20260504220324 57 101 0.0 2.6 0.00 0.00 0.00 60 1013.7
20260504214847 55 112 0.0 3.5 0.00 0.00 0.00 61 1013.5
20260504213324 55 99 0.0 1.7 0.00 0.00 0.00 63 1013.5
20260504211827 54 88 0.0 2.6 0.00 0.00 0.00 63 1013.0
20260504210347 53 116 0.0 1.7 0.00 0.00 0.00 65 1013.1
20260504204843 52 101 0.0 1.7 0.00 0.00 0.00 66 1013.0
20260504203353 52 107 0.0 4.3 0.00 0.00 0.00 65 1012.5
20260504201830 52 111 0.0 0.9 0.00 0.00 0.00 64 1012.0
20260504200325 51 119 0.0 0.9 0.00 0.00 0.00 64 1011.6
20260504194823 51 112 0.0 1.7 0.00 0.04 0.00 64 1011.2
20260504193331 51 108 0.0 1.7 0.00 0.04 0.00 65 1011.1
20260504191836 51 94 0.0 0.9 0.00 0.04 0.00 65 1011.0
20260504190330 51 83 0.0 0.9 0.00 0.04 0.00 65 1010.6
20260504184833 51 105 0.0 2.6 0.00 0.08 0.00 65 1010.4
20260504183331 51 104 0.0 0.9 0.00 0.08 0.00 67 1010.3
20260504181834 51 105 0.0 2.6 0.00 0.08 0.00 66 1010.0
20260504180330 51 126 0.0 2.6 0.00 0.08 0.00 66 1009.8
20260504174835 51 107 0.0 1.7 0.00 0.08 0.00 65 1009.4
20260504173328 51 111 0.0 0.9 0.00 0.08 0.00 65 1009.2
20260504171825 52 83 0.0 1.7 0.00 0.08 0.00 64 1008.8
20260504170315 52 113 0.0 5.2 0.00 0.08 0.00 64 1008.4
20260504160329 53 118 0.0 5.2 0.00 0.08 0.00 60 1006.2
20260504150321 54 106 0.0 1.7 0.00 0.08 0.00 64 1004.9
20260504140316 56 116 0.9 5.2 0.00 0.08 0.00 60 1002.6
20260504130331 59 133 0.9 4.3 0.00 0.08 0.02 54 999.6
20260504110318 62 120 1.7 9.6 0.00 0.08 0.02 56 996.8
20260504100323 63 109 0.9 7.0 0.00 0.08 0.02 57 996.1
20260504081837 66 82 1.7 10.4 0.00 0.08 0.02 54 994.7
20260504080349 67 127 2.6 9.6 0.00 0.08 0.02 54 994.3
20260504070329 68 84 1.7 7.8 0.00 0.08 0.02 56 993.5
20260504050317 73 100 0.9 2.6 0.00 0.08 0.02 53 993.8
20260504044821 74 137 1.7 5.2 0.00 0.08 0.02 56 994.1
20260504043316 73 114 2.6 5.2 0.00 0.08 0.02 56 994.1
20260504041819 73 60 0.0 3.5 0.00 0.08 0.02 56 993.9
20260504040330 73 103 0.0 3.5 0.00 0.08 0.02 59 994.0
20260504034831 74 99 1.7 4.3 0.00 0.08 0.02 55 993.7
20260504033349 74 99 0.9 4.3 0.00 0.08 0.02 58 993.6
20260504031830 75 108 0.9 3.5 0.00 0.08 0.02 54 993.4
20260504030347 75 68 0.0 2.6 0.00 0.08 0.02 56 993.4
20260504024848 75 112 0.0 1.7 0.00 0.08 0.02 55 993.5
20260504023322 76 20 0.0 0.9 0.00 0.08 0.02 59 993.6
20260504021825 76 97 0.0 0.9 0.00 0.08 0.02 61 993.6
20260504020316 75 46 0.9 1.7 0.00 0.08 0.02 62 993.5
20260504014834 75 89 0.0 0.9 0.00 0.08 0.02 61 993.7
20260504013323 73 63 0.0 3.5 0.00 0.08 0.02 62 993.6
20260504011822 73 104 0.0 0.9 0.00 0.08 0.02 62 993.8
20260504010316 72 102 0.0 0.9 0.00 0.08 0.02 64 993.8
20260504004815 72 100 0.0 1.7 0.00 0.08 0.02 65 993.9
20260504003336 72 112 0.0 1.7 0.00 0.08 0.02 69 993.8
20260504001828 72 94 0.0 0.9 0.00 0.08 0.02 70 993.8
20260504000312 71 108 0.0 1.7 0.00 0.08 0.02 72 993.7
20260503234846 70 88 0.0 0.9 0.00 0.08 0.02 78 993.5
20260503233337 69 113 0.0 1.7 0.00 0.08 0.02 80 993.4
20260503231818 67 91 0.0 1.7 0.00 0.08 0.02 85 993.3
20260503230336 67 91 0.0 0.9 0.00 0.08 0.02 87 993.2